When you browse on this site, cookies collect data to enhance your experience and personalize the content and advertising you see.
Visit our Privacy Policy to learn more. By continuing to use the site, you agree to this use of cookies and data.

Hourly Weather Cuilapa

Today, 20 September, Sunday

Time Temperature Precipitation Wind Pressure Humidity
00:00 +22°C° 0 mm 1 mps 685 mmHg 95%
01:00 +22°C° 1.1 mm 1 mps 685 mmHg 95%
02:00 +22°C° 1.1 mm 1 mps 684 mmHg 95%
03:00 +21°C° 1.1 mm 1 mps 684 mmHg 95%
04:00 +21°C° 0.1 mm 1 mps 684 mmHg 95%
05:00 +21°C° 0.1 mm 1 mps 684 mmHg 95%
06:00 +21°C° 0 mm 1 mps 685 mmHg 95%
07:00 +23°C° 0.1 mm 1 mps 685 mmHg 90%
08:00 +25°C° 0.1 mm 1 mps 686 mmHg 84%
09:00 +27°C° 0.1 mm 1 mps 687 mmHg 79%
10:00 +27°C° 0.4 mm 1 mps 686 mmHg 79%
11:00 +28°C° 0.4 mm 1 mps 686 mmHg 80%
12:00 +28°C° 0.4 mm 1 mps 686 mmHg 80%
13:00 +28°C° 1.4 mm 1 mps 685 mmHg 84%
14:00 +27°C° 1.4 mm 1 mps 684 mmHg 87%
15:00 +27°C° 1.4 mm 1 mps 684 mmHg 91%
16:00 +24°C° 1.1 mm 0 mps 684 mmHg 93%
17:00 +23°C° 1.1 mm 0 mps 684 mmHg 95%
18:00 +22°C° 1.1 mm 0 mps 684 mmHg 97%
19:00 +21°C° 0.8 mm 0 mps 685 mmHg 96%
20:00 +23°C° 0.8 mm 1 mps 685 mmHg 96%
21:00 +23°C° 0.8 mm 1 mps 686 mmHg 95%
22:00 +22°C° 0 mm 1 mps 685 mmHg 95%
23:00 +22°C° 0 mm 1 mps 685 mmHg 95%

Tomorrow, 21 September, Monday

Time Temperature Precipitation Wind Pressure Humidity
00:00 +22°C° 0 mm 1 mps 685 mmHg 94%
01:00 +21°C° 0 mm 1 mps 685 mmHg 94%
02:00 +21°C° 0 mm 1 mps 685 mmHg 94%
03:00 +20°C° 0 mm 2 mps 684 mmHg 94%
04:00 +20°C° 0 mm 2 mps 684 mmHg 94%
05:00 +20°C° 0 mm 2 mps 684 mmHg 94%
06:00 +20°C° 0 mm 2 mps 684 mmHg 94%
07:00 +23°C° 0 mm 1 mps 685 mmHg 87%
08:00 +25°C° 0 mm 1 mps 686 mmHg 81%
09:00 +27°C° 0 mm 1 mps 687 mmHg 74%
10:00 +28°C° 0.1 mm 1 mps 687 mmHg 70%
11:00 +29°C° 0.1 mm 2 mps 686 mmHg 66%
12:00 +29°C° 0.1 mm 2 mps 686 mmHg 63%
13:00 +29°C° 0.5 mm 2 mps 686 mmHg 68%
14:00 +28°C° 0.5 mm 1 mps 685 mmHg 73%
15:00 +27°C° 0.5 mm 1 mps 684 mmHg 78%
16:00 +26°C° 0.4 mm 1 mps 684 mmHg 84%
17:00 +25°C° 0.4 mm 1 mps 684 mmHg 90%
18:00 +21°C° 0.4 mm 0 mps 684 mmHg 96%
19:00 +23°C° 0.4 mm 1 mps 684 mmHg 96%
20:00 +22°C° 0.4 mm 1 mps 685 mmHg 95%
21:00 +22°C° 0.4 mm 1 mps 686 mmHg 95%
22:00 +21°C° 0 mm 1 mps 686 mmHg 95%
23:00 +21°C° 0 mm 1 mps 685 mmHg 94%

Day after tomorrow, 22 September, Tuesday

Time Temperature Precipitation Wind Pressure Humidity
00:00 +20°C° 0 mm 2 mps 685 mmHg 94%
01:00 +20°C° 0 mm 2 mps 685 mmHg 94%
02:00 +19°C° 0 mm 2 mps 685 mmHg 93%
03:00 +19°C° 0 mm 2 mps 684 mmHg 93%
04:00 +19°C° 0 mm 2 mps 685 mmHg 93%
05:00 +19°C° 0 mm 2 mps 685 mmHg 92%
06:00 +19°C° 0 mm 2 mps 685 mmHg 92%
07:00 +22°C° 0 mm 1 mps 686 mmHg 85%
08:00 +25°C° 0 mm 1 mps 686 mmHg 78%
09:00 +27°C° 0 mm 1 mps 687 mmHg 71%
10:00 +28°C° 0 mm 1 mps 687 mmHg 68%
11:00 +29°C° 0 mm 1 mps 687 mmHg 65%
12:00 +30°C° 0 mm 2 mps 687 mmHg 63%
13:00 +29°C° 0.5 mm 1 mps 686 mmHg 69%
14:00 +28°C° 0.5 mm 1 mps 685 mmHg 75%
15:00 +27°C° 0.5 mm 1 mps 684 mmHg 81%
16:00 +26°C° 0.7 mm 1 mps 684 mmHg 86%
17:00 +23°C° 0.7 mm 0 mps 684 mmHg 91%
18:00 +21°C° 0.7 mm 0 mps 684 mmHg 96%
19:00 +21°C° 0.8 mm 0 mps 684 mmHg 96%
20:00 +23°C° 0.8 mm 1 mps 685 mmHg 95%
21:00 +22°C° 0.8 mm 1 mps 686 mmHg 95%
22:00 +22°C° 0.5 mm 1 mps 685 mmHg 95%
23:00 +22°C° 0.5 mm 1 mps 685 mmHg 94%

23 September, Wednesday

Time Temperature Precipitation Wind Pressure Humidity
00:00 +21°C° 0.5 mm 1 mps 685 mmHg 94%
01:00 +21°C° 0 mm 1 mps 685 mmHg 94%
02:00 +21°C° 0 mm 1 mps 685 mmHg 93%
03:00 +20°C° 0 mm 2 mps 684 mmHg 93%
04:00 +20°C° 0 mm 2 mps 684 mmHg 93%
05:00 +19°C° 0 mm 2 mps 684 mmHg 92%
06:00 +19°C° 0 mm 2 mps 684 mmHg 92%
07:00 +23°C° 0 mm 1 mps 685 mmHg 85%
08:00 +25°C° 0 mm 1 mps 686 mmHg 77%
09:00 +25°C° 0 mm 0 mps 687 mmHg 70%
10:00 +28°C° 0.1 mm 1 mps 687 mmHg 70%
11:00 +28°C° 0.1 mm 1 mps 686 mmHg 70%
12:00 +29°C° 0.1 mm 1 mps 686 mmHg 69%
13:00 +28°C° 1.5 mm 1 mps 685 mmHg 76%
14:00 +27°C° 1.5 mm 1 mps 685 mmHg 82%
15:00 +26°C° 1.5 mm 1 mps 684 mmHg 89%
16:00 +25°C° 0.9 mm 1 mps 684 mmHg 92%
17:00 +22°C° 0.9 mm 0 mps 684 mmHg 94%
18:00 +21°C° 0.9 mm 0 mps 684 mmHg 97%
19:00 +21°C° 0.8 mm 0 mps 685 mmHg 97%
20:00 +20°C° 0.8 mm 0 mps 685 mmHg 96%
21:00 +22°C° 0.8 mm 1 mps 686 mmHg 96%
22:00 +22°C° 0.1 mm 1 mps 685 mmHg 95%
23:00 +21°C° 0.1 mm 1 mps 685 mmHg 95%

24 September, Thursday

Time Temperature Precipitation Wind Pressure Humidity
00:00 +21°C° 0.1 mm 1 mps 685 mmHg 94%
01:00 +21°C° 0.1 mm 1 mps 685 mmHg 94%
02:00 +21°C° 0.1 mm 1 mps 684 mmHg 94%
03:00 +21°C° 0.1 mm 1 mps 684 mmHg 94%
04:00 +21°C° 0.1 mm 1 mps 684 mmHg 93%
05:00 +20°C° 0.1 mm 1 mps 684 mmHg 93%
06:00 +20°C° 0.1 mm 1 mps 685 mmHg 93%
07:00 +23°C° 0 mm 1 mps 685 mmHg 87%
08:00 +25°C° 0 mm 1 mps 686 mmHg 80%
09:00 +25°C° 0 mm 0 mps 687 mmHg 74%
10:00 +28°C° 0 mm 1 mps 687 mmHg 71%
11:00 +29°C° 0 mm 1 mps 686 mmHg 68%
12:00 +30°C° 0 mm 2 mps 686 mmHg 66%
13:00 +29°C° 0.8 mm 1 mps 685 mmHg 72%
14:00 +28°C° 0.8 mm 1 mps 684 mmHg 78%
15:00 +27°C° 0.8 mm 1 mps 684 mmHg 85%
16:00 +26°C° 0.6 mm 1 mps 684 mmHg 89%
17:00 +24°C° 0.6 mm 1 mps 684 mmHg 93%
18:00 +21°C° 0.6 mm 0 mps 684 mmHg 97%
19:00 +21°C° 0 mm 0 mps 684 mmHg 97%
20:00 +21°C° 0 mm 0 mps 685 mmHg 97%
21:00 +20°C° 0 mm 0 mps 686 mmHg 97%
22:00 +20°C° 0 mm 0 mps 686 mmHg 96%
23:00 +20°C° 0 mm 0 mps 686 mmHg 96%

25 September, Friday

Time Temperature Precipitation Wind Pressure Humidity
00:00 +22°C° 0 mm 1 mps 685 mmHg 95%
01:00 +22°C° 0.1 mm 1 mps 685 mmHg 95%
02:00 +21°C° 0.1 mm 1 mps 685 mmHg 95%
03:00 +21°C° 0.1 mm 1 mps 685 mmHg 94%
04:00 +21°C° 0.1 mm 1 mps 685 mmHg 94%
05:00 +21°C° 0.1 mm 1 mps 685 mmHg 94%
06:00 +21°C° 0.1 mm 1 mps 685 mmHg 94%
07:00 +22°C° 0.1 mm 1 mps 686 mmHg 92%
08:00 +23°C° 0.1 mm 1 mps 686 mmHg 91%
09:00 +24°C° 0.1 mm 1 mps 687 mmHg 89%
10:00 +25°C° 0.5 mm 1 mps 686 mmHg 86%
11:00 +26°C° 0.5 mm 1 mps 686 mmHg 83%
12:00 +27°C° 0.5 mm 1 mps 686 mmHg 81%
13:00 +26°C° 1.5 mm 1 mps 685 mmHg 86%
14:00 +25°C° 1.5 mm 1 mps 684 mmHg 91%
15:00 +24°C° 1.5 mm 1 mps 684 mmHg 95%
16:00 +23°C° 1.7 mm 1 mps 684 mmHg 96%
17:00 +21°C° 1.7 mm 0 mps 684 mmHg 97%
18:00 +21°C° 1.7 mm 0 mps 684 mmHg 98%
19:00 +20°C° 1.9 mm 0 mps 685 mmHg 98%
20:00 +20°C° 1.9 mm 0 mps 685 mmHg 98%
21:00 +20°C° 1.9 mm 0 mps 686 mmHg 97%
22:00 +20°C° 1.2 mm 0 mps 686 mmHg 98%
23:00 +20°C° 1.2 mm 0 mps 686 mmHg 98%
Show more